Torna al catalogo

CZ-6A DEB

AttivoSSO
NORAD 56616·DEBRIS·🇨🇳 China

Lanciato Nov 11, 2022 da Taiyuan Satellite Launch Center

Loading…

Prossimi Passaggi (prossime 24 ore)

TLE

AggiornatoSource: Space-Track

Epoca: Sep 13, 2026, 05:23 UTC

1 56616U 22151AEQ 26256.22443480  .00000170  00000-0  11429-3 0  9991
2 56616  98.8245 258.8126 0033259  55.4884 304.9421 14.12956502174909

Traccia CZ-6A DEB in tempo reale con AllMySat

Download on the App Store